Time,TemperatureF,DewpointF,PressureIn,WindDirection,WindDirectionDegrees,WindSpeedMPH,WindSpeedGustMPH,Humidity,HourlyPrecipIn,Conditions,Clouds,dailyrainin,SoftwareType,DateUTC
2013-02-24 03:01:00,37.0,37.0,-100.00,ESE,120,5.0,6.0,100,-99.99,,,-99.99,,2013-02-24 11:01:00,
2013-02-24 03:11:00,37.0,37.0,-100.00,ESE,120,5.0,6.0,100,-99.99,,,-99.99,,2013-02-24 11:11:00,
2013-02-24 04:15:00,37.0,36.0,-100.00,East,100,2.0,5.0,96,-99.99,,,-99.99,,2013-02-24 12:15:00,
2013-02-24 05:08:00,37.0,36.0,-100.00,East,100,2.0,5.0,96,-99.99,,,-99.99,,2013-02-24 13:08:00,
2013-02-24 07:02:00,37.0,36.0,-100.00,East,90,2.0,6.0,96,-99.99,,,-99.99,,2013-02-24 15:02:00,
2013-02-24 07:12:00,37.0,36.0,-100.00,East,90,2.0,6.0,96,-99.99,,,-99.99,,2013-02-24 15:12:00,
2013-02-24 09:01:00,37.0,37.0,-100.00,ENE,75,2.0,5.0,100,-99.99,,,-99.99,,2013-02-24 17:01:00,
2013-02-24 09:11:00,37.0,37.0,-100.00,ENE,75,2.0,5.0,100,-99.99,,,-99.99,,2013-02-24 17:11:00,
2013-02-24 11:01:00,40.0,37.0,-100.00,ESE,120,6.0,10.0,88,-99.99,,,-99.99,,2013-02-24 19:01:00,
2013-02-24 11:11:00,40.0,37.0,-100.00,ESE,120,6.0,10.0,88,-99.99,,,-99.99,,2013-02-24 19:11:00,
2013-02-24 13:01:00,43.0,38.0,-100.00,East,100,0.0,5.0,82,-99.99,,,-99.99,,2013-02-24 21:01:00,
2013-02-24 13:11:00,43.0,38.0,-100.00,East,100,0.0,5.0,82,-99.99,,,-99.99,,2013-02-24 21:11:00,
2013-02-24 15:02:00,42.0,41.0,-100.00,NE,35,1.0,7.0,96,-99.99,,,-99.99,,2013-02-24 23:02:00,
2013-02-24 15:11:00,42.0,41.0,-100.00,NE,35,1.0,7.0,96,-99.99,,,-99.99,,2013-02-24 23:11:00,
2013-02-24 17:01:00,42.0,42.0,-100.00,ESE,120,2.0,3.0,100,-99.99,,,-99.99,,2013-02-25 01:01:00,
2013-02-24 17:11:00,42.0,42.0,-100.00,ESE,120,2.0,3.0,100,-99.99,,,-99.99,,2013-02-25 01:11:00,
2013-02-24 19:01:00,42.0,41.0,-100.00,East,90,0.0,3.0,96,-99.99,,,-99.99,,2013-02-25 03:01:00,
2013-02-24 19:11:00,42.0,41.0,-100.00,East,90,0.0,3.0,96,-99.99,,,-99.99,,2013-02-25 03:11:00,
2013-02-24 21:01:00,41.0,40.0,-100.00,ESE,115,2.0,5.0,96,-99.99,,,-99.99,,2013-02-25 05:01:00,
2013-02-24 21:11:00,41.0,40.0,-100.00,ESE,115,2.0,5.0,96,-99.99,,,-99.99,,2013-02-25 05:11:00,
2013-02-24 23:01:00,40.0,39.0,-100.00,NNE,15,1.0,5.0,96,-99.99,,,-99.99,,2013-02-25 07:01:00,
2013-02-24 23:11:00,40.0,39.0,-100.00,NNE,15,1.0,5.0,96,-99.99,,,-99.99,,2013-02-25 07:11:00,